Tracking 19846 objects as of 20-Sep-2019
HD Live streaming from Space Station
objects crossing your sky now

TITAN 4B CENTAUR R/B

Track TITAN 4B CENTAUR R/B now!
10-day predictions


NORAD ID: 25725
Int'l Code: 1999-023B
Perigee: 712.3 km
Apogee: 5,155.3 km
Inclination: 28.3 °
Period: 148.9 minutes
Semi major axis: 9304 km
RCS: Unknown
Launch date: April 30, 1999
Source: United States (US)
Launch site: AIR FORCE EASTERN TEST RANGE (AFETR)

Note: This is a ROCKET BODY
aabbcc
Your satellite tracking list
Your tracking list is empty




NASA's NSSDC Master Catalog

Two Line Element Set (TLE):
1 25725U 99023B   19262.87714234 -.00000017 +00000-0 -13468-3 0  9995
2 25725 028.3256 117.9801 2387474 316.7807 026.7862 09.67252586018520
Source of the keplerian elements: McCants